Weather in Keperveyem

Russia / Chukotka Autonomous Okrug     67°50′30″N   166°08′47″E
temp.,
°C
wind,
m/s
gust,
m/s
humid.,
%
clouds,
%
prec.,
mm/h
press.,
hPa
HPBL,
m
17 august, wed
wed1700:00+5se2277100 0.0 101228
03:00+5se2274100 0.0 101127
06:00+5ese2271100 0.0 101196
09:00+8ese3451100 0.0 1011680
12:00+11ese3440100 0.0 1010868
15:00+13se3434100 0.0 10081094
18:00+13se2333100 0.0 10081019
21:00+9sse2244100 0.0 100924
18 august, thu
thu1800:00+6se225392 0.0 100912
03:00+4ese216067 0.0 100910
06:00+4ese11635 0.0 100911
09:00+9ese12476 0.0 1009562
12:00+13se23330 0.0 10071039
15:00+15se12270 0.0 10061338
18:00+16ese23260 0.0 10061422
21:00+10ese33390 0.0 100814
19 august, fri
fri1900:00+7se22470 0.0 100910
03:00+5sse22520 0.0 101010
06:00+6se11550 0.0 101111
09:00+11se12400 0.0 1011478
12:00+14sse23330 0.0 10111165
15:00+16se33310 0.0 10101438
18:00+16e23300 0.0 10101533
21:00+11e22440 0.0 101110
20 august, sat
sat2000:00+9se22540 0.0 101211
03:00+7sse22600 0.0 101211
06:00+7se22620 0.0 101312
09:00+12se13460 0.0 1013523
12:00+15se45350 0.0 10111309
15:00+17se34320 0.0 10111699
18:00+17sse34335 0.0 10111863
21:00+11s33512 0.0 101227
21 august, sun
sun2100:00+9sse32570 0.0 101312
03:00+7se11684 0.0 101410
06:00+7sse11684 0.0 101511
09:00+12ese12520 0.0 1015503
12:00+15se23380 0.0 10141308
15:00+17se23331 0.0 10141676
18:00+17ese56345 0.0 10132005
21:00+11ese58564 0.0 1016117